This is the latest recevied weather packets stored in our database for station/object IR1CH-3. If no packets are shown the sender has not sent any weather packets the latest 10 day(s).
| Time | Temp. | Humidity | Pressure | Rain* | Wind** | Luminosity | Snow |
|---|---|---|---|---|---|---|---|
| 1777592445 | 17.22° C | 46% | 1022 hPa | - | - | - | - |
| 1777590644 | 17.22° C | 45% | 1021.8 hPa | - | - | - | - |
| 1777588844 | 17.78° C | 45% | 1021.5 hPa | - | - | - | - |
| 1777587044 | 17.78° C | 47% | 1021.6 hPa | - | - | - | - |
| 1777585243 | 18.33° C | 45% | 1021.6 hPa | - | - | - | - |
| 1777583443 | 18.33° C | 47% | 1021.4 hPa | - | - | - | - |
| 1777581642 | 18.33° C | 46% | 1021.3 hPa | - | - | - | - |
| 1777579842 | 18.33° C | 46% | 1021.1 hPa | - | - | - | - |
| 1777578042 | 19.44° C | 49% | 1021 hPa | - | - | - | - |
| 1777576242 | 17.78° C | 47% | 1020.9 hPa | - | - | - | - |
| 1777574441 | 18.89° C | 44% | 1020.4 hPa | - | - | - | - |
| 1777572641 | 18.89° C | 44% | 1020.2 hPa | - | - | - | - |
| 1777570841 | 19.44° C | 44% | 1019.8 hPa | - | - | - | - |
| 1777569040 | 20° C | 43% | 1019.7 hPa | - | - | - | - |
| 1777567240 | 20.56° C | 42% | 1019.8 hPa | - | - | - | - |
| 1777565439 | 20.56° C | 44% | 1019.6 hPa | - | - | - | - |
| 1777563639 | 20.56° C | 41% | 1019.6 hPa | - | - | - | - |
| 1777561839 | 21.11° C | 41% | 1019.6 hPa | - | - | - | - |
| 1777560039 | 21.11° C | 40% | 1019.6 hPa | - | - | - | - |
| 1777558238 | 21.67° C | 40% | 1019.8 hPa | - | - | - | - |
| 1777556438 | 21.67° C | 37% | 1019.9 hPa | - | - | - | - |
| 1777554638 | 22.22° C | 35% | 1019.9 hPa | - | - | - | - |
| 1777552837 | 22.22° C | 36% | 1019.8 hPa | - | - | - | - |
| 1777551037 | 21.11° C | 44% | 1020.1 hPa | - | - | - | - |
| 1777549236 | 22.22° C | 43% | 1019.7 hPa | - | - | - | - |
* Rain since midnight (hover to see other rain measurements)
** Current wind speed in m/s (hover to see current wind gust speed)